Flag for Germany Weather past 2 weeks in Lüdenscheid, North Rhine-Westphalia, Germany

Now
60 °F

Low clouds.


Feels Like: 60 °F
Forecast: 51 / 71 °F
Wind: 1 mph from Southeast

Location: Koeln / Bonn

Current Time: Jul 11, 2014 at 4:29:09 AM

Latest Report: Jul 11, 2014 at 4:00 AM


Visibility: 6 mi

Pressure: 29.90 "Hg

Humidity: 98%

Dew point: 60 °F

Location of LüdenscheidLocation

Historic Weather in Lüdenscheid — Graph

°F

Lüdenscheid temperature yesterday

Maximum temperature yesterday: 78 °F (at 5:00 PM)
Minimum temperature yesterday: 57 °F (at 6:00 AM)
Average temperature yesterday: 66 °F

Past Weeks' High & Low Weather Summary

 TemperatureHumidityPressure
High85 °F (Jul 4, 4:00 PM)99% (Jul 1, 7:00 AM)30.23 "Hg (Jul 1, 7:00 AM)
Low44 °F (Jul 1, 5:00 AM)28% (Jul 3, 4:00 PM)29.66 "Hg (Jul 9, 6:00 PM)
Average62 °F73%29.93 "Hg
* Reported Jun 26 3:00 AM — Jul 11 3:00 AM, Lüdenscheid, Weather by CustomWeather, © 2014

Note: Actual official high and low records may vary slightly from our data, if they occured in-between our weather recording intervals... More about our weather records

Advertising

Lüdenscheid weather history for previous 24 hours

 ConditionsComfort  
Time TempWeatherWind HumidityBarometerVisibility
3:00 AM
Jul 11
60 °FLow clouds.1 mph98%29.91 "Hg7 mi
2:00 AM59 °FLow clouds.2 mph96%29.90 "Hg9 mi
1:00 AM60 °FThunderstorms. Overcast.2 mph96%29.91 "Hg22 mi
12:00 AM60 °FThundershowers. Low clouds.3 mph95%29.92 "Hg12 mi
11:00 PM
Jul 10
62 °FThundershowers. Low clouds.8 mph86%29.90 "Hg5 mi
10:00 PM72 °FPassing clouds.3 mph78%29.84 "Hg12 mi
9:00 PM74 °FScattered clouds.6 mph74%29.81 "Hg12 mi
8:00 PM77 °FScattered clouds.5 mph65%29.81 "Hg16 mi
7:00 PM77 °FScattered clouds.5 mph65%29.79 "Hg19 mi
5:00 PM78 °FPartly sunny.5 mph65%29.80 "Hg17 mi
4:00 PM77 °FScattered clouds.3 mph66%29.81 "Hg16 mi
3:00 PM74 °FPartly sunny.3 mph70%29.81 "Hg16 mi
2:00 PM71 °FPartly sunny.1 mph76%29.82 "Hg16 mi
1:00 PM69 °FPartly sunny.2 mph81%29.82 "Hg14 mi
12:00 PM65 °FLow clouds.2 mph84%29.81 "Hg11 mi
11:00 AM63 °FLow clouds.1 mph89%29.81 "Hg7 mi
10:00 AM62 °FLow clouds.1 mph88%29.80 "Hg6 mi
9:00 AM60 °FLow clouds.1 mph93%29.78 "Hg5 mi
8:00 AM59 °FFog.1 mph96%29.77 "Hg4 mi
7:00 AM58 °FFog.1 mph99%29.76 "Hg3 mi
6:00 AM57 °FFog.1 mph98%29.75 "Hg3 mi
5:00 AM58 °FFog.2 mph98%29.73 "Hg2 mi
4:00 AM58 °FLow clouds.1 mph98%29.72 "Hg2 mi
Weather by CustomWeather, © 2014

See weather overviewHow to use our weather pages